Regional Weather Roundup
Issued by NWS

Home | Current Version | Previous Version | Graphics & Text | Print | Product List | Glossary On
Versions: 1 2 3 4 5 6 7 8 9 10 11 12 13 14 15 16 17 18 19 20 21 22 23 24 25 26 27 28 29 30 31 32 33 34 35 36 37 38 39 40 41 42 43 44 45 46 47 48 49 50
000
ASUS43 KDTX 271110
RWRMI
MICHIGAN HOURLY REGIONAL WEATHER ROUNDUP
NATIONAL WEATHER SERVICE DETROIT/PONTIAC MI
600 AM EST FRI FEB 27 2015

NOTE: "FAIR" INDICATES FEW OR NO CLOUDS BELOW 12,000 FEET WITH NO
SIGNIFICANT WEATHER AND/OR OBSTRUCTION TO VISIBILITY.

MIZ047>049-052>055-059>063-066>070-074>076-081>083-271200-
SOUTHEAST LOWER MICHIGAN

CITY           SKY/WX    TMP DP  RH WIND       PRES   REMARKS
ADRIAN         CLEAR     -6 -11  79 NW3       30.45R
ALMA           CLEAR    -13 -19  75 CALM      30.45R
ANN ARBOR      CLEAR    -16 -18  91 NW3       30.43R
BAD AXE        CLEAR    -16 -20  80 CALM      30.42R
CARO           CLEAR    -17 -25  67 CALM      30.43R
DETROIT CITY   CLEAR      0  -6  76 CALM      30.44R
DETROIT        CLEAR     -3  -8  79 SW3       30.46R
FLINT          CLEAR    -13 -21  67 CALM      30.44R
GROSSE ILE     HAZE      -4  -9  77 CALM      30.45R VSB 1/2
HILLSDALE      CLEAR     -6 -12  76 CALM      30.39R
HOWELL         CLEAR     -9 -14  78 W3        30.42R

CITY           SKY/WX    TMP DP  RH WIND       PRES   REMARKS
JACKSON        CLEAR    -13 -18  78 W5        30.43R WCI -25
LAMBERTVILLE   FAIR      -6  -9  84 CALM      30.46R
LANSING        CLEAR    -10 -15  78 W5        30.45R WCI -22
LAPEER         FAIR     -18 -24  74 CALM      30.42R
MASON          CLEAR    -11 -15  80 CALM      30.43R
MONROE         CLEAR     -8 -11  84 CALM      30.44R
MT. CLEMENS    CLEAR     -5  -9  85 W2        30.42R
PONTIAC        CLEAR    -10 -15  78 CALM      30.40R
PORT HOPE        N/A     -8 -13  78 W5        30.40R WCI -19
PORT HURON     PTCLDY   -18 -24  76 CALM      30.44R
TRI CITIES     CLEAR     -5 -12  72 W5        30.44R WCI -16
TROY           CLEAR      0  -5  78 CALM      30.45R
SAGINAW HB     CLEAR     -9 -15  77 SW3       30.45R
$$
MIZ043>046-050>051-056>058-064>065-071>073-077>080-271200-
SOUTHWEST LOWER MICHIGAN

CITY           SKY/WX    TMP DP  RH WIND       PRES   REMARKS
BATTLE CREEK   CLEAR     -6 -15  65 CALM      30.43R
BENTON HARBOR  CLOUDY    -3  -9  75 CALM      30.47R
BIG RAPIDS     PTCLDY   -19 -25  75 CALM      30.41R
COLDWATER      CLEAR    -13 -19  76 CALM      30.43R
FREMONT        CLOUDY   -11 -18  72 CALM      30.43R
HOLLAND        PTCLDY    -3 -12  65 SE5       30.47R WCI -13
GRAND RAPIDS   CLEAR     -6 -14  68 CALM      30.45R
IONIA          FAIR      -7 -13  75 CALM      30.43R
KALAMAZOO      CLEAR     -8 -13  78 CALM      30.45R
LUDINGTON      CLOUDY    -4 -10  75 E3        30.44R HAZE
MARSHALL       CLEAR    -20 -25  75 CALM      30.43R
MOUNT PLEASANT PTCLDY   -12 -17  76 CALM      30.43R
MUSKEGON       PTCLDY    -6 -12  75 SE3       30.46R
SOUTH HAVEN    CLOUDY     1  -9  62 CALM      30.47R
$$
MIZ016>042-271200-
NORTHERN LOWER MICHIGAN

CITY           SKY/WX    TMP DP  RH WIND       PRES   REMARKS
ALPENA         CLEAR    -18 -24  74 W3        30.40R
BEAVER ISLAND  CLEAR    -13 -18  81 CALM      30.38S
BELLAIRE       CLEAR    -22 -28  74 CALM      30.43R
CADILLAC       PTCLDY   -25 -32  69 CALM      30.35R
CHARLEVOIX     CLEAR    -17 -22  78 CALM      30.42R
FRANKFORT      PTCLDY   -12 -16  82 CALM      30.42R
GAYLORD        PTCLDY   -20 -26  74 CALM      30.32R
GRAYLING       PTCLDY   -27 -35  65 CALM      30.36R
HARBOR SPRINGS CLEAR    -14 -18  81 CALM      30.38R
HOUGHTON LAKE  PTCLDY   -20 -27  70 CALM      30.37R
MANISTEE       CLOUDY    -9 -15  77 E5        30.43R WCI -21
OSCODA         CLEAR    -17 -22  74 SW3       30.41R
PELLSTON       CLEAR    -27 -33  73 CALM      30.38R
ROGERS CITY    PTCLDY    -5  -9  86 SW5       30.39R WCI -16
TRAVERSE CITY  CLEAR    -17 -23  73 CALM      30.41R
$$
MIZ007>008-015-271200-
EASTERN UPPER MICHIGAN

CITY           SKY/WX    TMP DP  RH WIND       PRES   REMARKS
KINROSS        PTCLDY    -8  -9  92 SW7       30.33R WCI -22
MACKINAC ISLAN PTCLDY    -1  -6  80 SW8       30.36R WCI -16
NEWBERRY       CLEAR     -8 -11  89 W6        30.33R WCI -22
S. S. MARIE    PTCLDY    -8 -14  74 S5        30.33R WCI -19
MUNISING         N/A    -11 -17  75 S9        30.37R WCI -29
$$
MIZ004>006-011>014-085-271200-
CENTRAL UPPER MICHIGAN

CITY           SKY/WX    TMP DP  RH WIND       PRES   REMARKS
MANISTIQUE     PTCLDY    -9 -14  81 MISG      30.37R
ESCANABA       CLEAR     -8 -17  65 W6        30.41R WCI -21
MENOMINEE      CLEAR     -6  -9  84 NW3       30.42R
SAWYER-GWINN   PTCLDY   -13 -18  77 W3        30.31S
$$
MIZ001>003-009>011-084-271200-
WESTERN UPPER MICHIGAN

CITY           SKY/WX    TMP DP  RH WIND       PRES   REMARKS
IRON MOUNTAIN  PTCLDY   -12 -19  71 CALM      30.35R
HOUGHTON       CLEAR     -8 -13  78 W10       30.31R WCI -26
COPPER HARBOR    N/A      3  -6  66 NW8       30.34R WCI -10
IRONWOOD       CLEAR     -8 -11  84 W8        30.33S WCI -23
$$

ABBREVIATIONS USED IN REMARKS
   TC - TEMPERATURE IN CELSIUS
  WCI - WIND CHILL INDEX
   HX - HEAT INDEX
  VSB - VISIBILITY



USA.gov is the U.S. government's official web portal to all federal, state and local government web resources and services.